EW5962 Weather Reports


time (UTC)temp
F
wind
direction
speed
knots
gust
knots
rain 1hr
in
rain 24hr
in
rain mn
in
humidity
%
barometer
mb
20260831175009 93 217 0.0 5.2 0.00 0.00 0.00 59 1018.1
20260831174609 93 348 1.7 5.2 0.00 0.00 0.00 59 1018.1
20260831174110 92 326 0.0 0.9 0.00 0.00 0.00 59 1018.1
20260831173509 91 278 0.0 0.9 0.00 0.00 0.00 62 1018.1
20260831173103 91 336 0.0 1.7 0.00 0.00 0.00 61 1018.1
20260831172503 91 212 0.0 1.7 0.00 0.00 0.00 62 1018.2
20260831172012 91 359 0.0 0.9 0.00 0.00 0.00 60 1018.3
20260831171603 90 353 0.0 1.7 0.00 0.00 0.00 61 1018.3
20260831171002 90 344 0.0 1.7 0.00 0.00 0.00 63 1018.3
20260831170513 89 59 0.0 4.3 0.00 0.00 0.00 63 1018.3
20260831170132 89 90 0.0 4.3 0.00 0.00 0.00 63 1018.3
20260831165502 89 168 0.0 2.6 0.00 0.00 0.00 65 1018.4
20260831165010 89 36 0.0 2.6 0.00 0.00 0.00 64 1018.4
20260831164603 89 174 0.0 3.5 0.00 0.00 0.00 67 1018.5
20260831164003 89 351 0.0 5.2 0.00 0.00 0.00 64 1018.6
20260831163509 88 270 0.0 0.0 0.00 0.00 0.00 66 1018.7
20260831163103 88 170 0.0 0.9 0.00 0.00 0.00 66 1018.7
20260831162504 88 163 0.0 3.5 0.00 0.00 0.00 67 1018.7
20260831162010 88 188 0.0 3.5 0.00 0.00 0.00 66 1018.8
20260831161509 87 357 0.0 4.3 0.00 0.00 0.00 68 1018.8
20260831161103 87 309 0.0 4.3 0.00 0.00 0.00 70 1018.9
20260831160502 87 93 0.0 0.9 0.00 0.00 0.00 68 1018.9
20260831160023 86 82 0.0 1.7 0.00 0.00 0.00 68 1018.9
20260831155603 86 190 0.0 1.7 0.00 0.00 0.00 72 1018.9
20260831155002 86 174 0.0 2.6 0.00 0.00 0.00 73 1018.9
20260831154509 86 191 0.0 2.6 0.00 0.00 0.00 71 1018.9
20260831154102 85 182 0.0 2.6 0.00 0.00 0.00 71 1018.9
20260831153502 85 178 0.0 0.9 0.00 0.00 0.00 72 1019.0
20260831153010 84 6 0.0 1.7 0.00 0.00 0.00 75 1019.0
20260831152604 84 47 0.0 1.7 0.00 0.00 0.00 75 1019.0
20260831152006 83 147 0.0 0.9 0.00 0.00 0.00 76 1019.0
20260831151511 83 122 0.0 0.9 0.00 0.00 0.00 75 1019.1
20260831151103 83 3 0.0 0.9 0.00 0.00 0.00 78 1019.1
20260831150503 82 146 0.0 3.5 0.00 0.00 0.00 79 1019.2
20260831150010 81 21 0.0 3.5 0.00 0.00 0.00 80 1019.2
20260831145602 81 171 0.0 1.7 0.00 0.00 0.00 80 1019.2
20260831145003 80 159 0.0 0.9 0.00 0.00 0.00 81 1019.2
20260831144522 79 165 0.0 0.9 0.00 0.00 0.00 82 1019.3
20260831144106 79 136 0.0 0.9 0.00 0.00 0.00 83 1019.2
20260831143503 78 149 0.0 0.0 0.00 0.00 0.00 86 1019.3
20260831143009 78 140 0.0 1.7 0.00 0.00 0.00 86 1019.3
20260831142604 77 123 0.0 1.7 0.00 0.00 0.00 87 1019.2
20260831142004 77 8 0.0 3.5 0.00 0.00 0.00 89 1019.1
20260831141513 76 180 0.0 3.5 0.00 0.00 0.00 90 1019.1
20260831141102 76 24 0.0 0.9 0.00 0.00 0.00 91 1019.1
20260831140503 75 131 0.0 0.0 0.00 0.00 0.00 92 1019.1
20260831140010 74 141 0.0 0.9 0.00 0.00 0.00 93 1019.2
20260831135602 74 181 0.0 2.6 0.00 0.00 0.00 94 1019.2
20260831135004 73 202 0.0 4.3 0.00 0.00 0.00 96 1019.1
20260831134510 73 200 0.0 4.3 0.00 0.00 0.00 97 1019.1
20260831134103 72 176 0.0 0.0 0.00 0.00 0.00 98 1019.1
20260831133507 72 169 0.0 0.9 0.00 0.00 0.00 98 1019.2
20260831133009 71 172 0.0 0.0 0.00 0.00 0.00 98 1019.2
20260831132603 71 145 0.0 0.0 0.00 0.00 0.00 98 1019.3
20260831132003 70 186 0.0 0.0 0.00 0.00 0.00 98 1019.3
20260831131510 70 176 0.0 0.0 0.00 0.00 0.00 98 1019.3
20260831131103 69 176 0.0 0.0 0.00 0.00 0.00 98 1019.2
20260831130503 68 167 0.0 0.0 0.00 0.00 0.00 98 1019.2
20260831130009 68 219 0.0 0.0 0.00 0.00 0.00 98 1019.1
20260831125602 68 219 0.0 0.0 0.00 0.00 0.00 98 1019.1
20260831125005 67 219 0.0 0.0 0.00 0.00 0.00 98 1019.2
20260831124509 67 219 0.0 0.0 0.00 0.00 0.00 98 1019.2
20260831124103 67 219 0.0 0.0 0.00 0.00 0.00 98 1019.3
20260831123503 66 219 0.0 0.0 0.00 0.00 0.00 97 1019.2
20260831123009 66 219 0.0 0.0 0.00 0.00 0.00 97 1019.1
20260831122603 66 219 0.0 0.0 0.00 0.00 0.00 97 1019.2
20260831122003 66 219 0.0 0.0 0.00 0.00 0.00 97 1019.3
20260831121513 66 219 0.0 0.0 0.00 0.00 0.00 97 1019.2
20260831121102 65 219 0.0 0.0 0.00 0.00 0.00 97 1019.2
20260831120503 65 219 0.0 0.0 0.00 0.00 0.00 97 1019.2
20260831120010 65 219 0.0 0.0 0.00 0.00 0.00 97 1019.2
20260831115603 65 219 0.0 0.0 0.00 0.00 0.00 97 1019.1
20260831115003 65 219 0.0 0.0 0.00 0.00 0.00 97 1019.1
20260831114511 65 219 0.0 0.0 0.00 0.00 0.00 97 1019.1
20260831114103 65 219 0.0 0.0 0.00 0.00 0.00 97 1019.1
20260831113503 64 219 0.0 0.0 0.00 0.00 0.00 97 1019.1
20260831113010 64 219 0.0 0.0 0.00 0.00 0.00 97 1019.1
20260831112606 64 219 0.0 0.0 0.00 0.00 0.00 97 1019.0
20260831112002 64 219 0.0 0.0 0.00 0.00 0.00 97 1019.0
20260831111520 64 219 0.0 0.0 0.00 0.00 0.00 96 1019.0
20260831111106 64 219 0.0 0.0 0.00 0.00 0.00 96 1019.0
20260831110502 64 219 0.0 0.0 0.00 0.00 0.00 96 1018.9
20260831110008 64 219 0.0 0.0 0.00 0.00 0.00 96 1018.9
20260831105603 64 219 0.0 0.0 0.00 0.00 0.00 96 1018.9
20260831105003 64 219 0.0 0.0 0.00 0.00 0.00 96 1018.9
20260831104509 64 219 0.0 0.0 0.00 0.00 0.00 96 1018.9
20260831104103 64 219 0.0 0.0 0.00 0.00 0.00 96 1018.9
20260831103505 64 219 0.0 0.0 0.00 0.00 0.00 96 1019.0
20260831103019 64 219 0.0 0.0 0.00 0.00 0.00 96 1018.9
20260831102604 64 219 0.0 0.0 0.00 0.00 0.00 96 1018.8
20260831102004 64 219 0.0 0.0 0.00 0.00 0.00 96 1018.8
20260831101510 64 219 0.0 0.0 0.00 0.00 0.00 96 1018.8
20260831101103 64 219 0.0 0.0 0.00 0.00 0.00 96 1018.8
20260831100503 64 219 0.0 0.0 0.00 0.00 0.00 96 1018.8
20260831100011 65 219 0.0 0.0 0.00 0.00 0.00 96 1018.7
20260831095603 65 219 0.0 0.0 0.00 0.00 0.00 96 1018.6
20260831095003 64 219 0.0 0.0 0.00 0.00 0.00 96 1018.6
20260831094520 65 219 0.0 0.0 0.00 0.00 0.00 96 1018.7
20260831094103 65 219 0.0 0.0 0.00 0.00 0.00 96 1018.7
20260831093503 65 219 0.0 0.0 0.00 0.00 0.00 96 1018.7
20260831093010 65 219 0.0 0.0 0.00 0.00 0.00 96 1018.6
20260831092604 65 219 0.0 0.0 0.00 0.00 0.00 96 1018.6
20260831092002 65 219 0.0 0.0 0.00 0.00 0.00 96 1018.6
20260831091510 65 219 0.0 0.0 0.00 0.00 0.00 96 1018.5
20260831091103 65 219 0.0 0.0 0.00 0.00 0.00 96 1018.5
20260831090506 65 219 0.0 0.0 0.00 0.00 0.00 96 1018.4
20260831090009 65 219 0.0 0.0 0.00 0.00 0.00 96 1018.4
20260831085604 65 219 0.0 0.0 0.00 0.00 0.00 96 1018.4
20260831085002 65 219 0.0 0.0 0.00 0.00 0.00 96 1018.4
20260831084508 65 219 0.0 0.0 0.00 0.00 0.00 96 1018.5
20260831084103 65 219 0.0 0.0 0.00 0.00 0.00 96 1018.5
20260831083502 65 219 0.0 0.0 0.00 0.00 0.00 96 1018.6
20260831083018 65 219 0.0 0.0 0.00 0.00 0.00 96 1018.6
20260831082602 65 219 0.0 0.0 0.00 0.00 0.00 96 1018.6
20260831082003 65 219 0.0 0.0 0.00 0.00 0.00 96 1018.5
20260831081510 65 219 0.0 0.0 0.00 0.00 0.00 96 1018.5
20260831081102 65 219 0.0 0.0 0.00 0.00 0.00 95 1018.5
20260831080505 65 219 0.0 0.0 0.00 0.00 0.00 96 1018.5
20260831080027 65 219 0.0 0.0 0.00 0.00 0.00 96 1018.4
20260831075605 65 219 0.0 0.0 0.00 0.00 0.00 95 1018.4
20260831075002 65 219 0.0 0.0 0.00 0.00 0.00 95 1018.4
20260831074512 65 219 0.0 0.0 0.00 0.00 0.00 95 1018.5
20260831074105 66 219 0.0 0.0 0.00 0.00 0.00 95 1018.4
20260831073503 66 219 0.0 0.0 0.00 0.00 0.00 95 1018.5
20260831073021 66 219 0.0 0.0 0.00 0.00 0.00 95 1018.5
20260831072606 66 219 0.0 0.0 0.00 0.00 0.00 95 1018.5
20260831072002 66 219 0.0 0.0 0.00 0.00 0.00 95 1018.6
20260831071509 66 219 0.0 0.0 0.00 0.00 0.00 95 1018.6
20260831071104 66 219 0.0 0.0 0.00 0.00 0.00 95 1018.6
20260831070503 66 219 0.0 0.0 0.00 0.00 0.00 95 1018.6
20260831070011 66 219 0.0 0.0 0.00 0.00 0.00 95 1018.6
20260831065606 66 219 0.0 0.0 0.00 0.00 0.00 95 1018.6
20260831065002 66 219 0.0 0.0 0.00 0.00 0.00 95 1018.6
20260831064508 66 219 0.0 0.0 0.00 0.00 0.00 95 1018.7
20260831064103 66 219 0.0 0.0 0.00 0.00 0.00 95 1018.7
20260831063503 66 219 0.0 0.0 0.00 0.00 0.00 95 1018.7
20260831063017 66 219 0.0 0.0 0.00 0.00 0.00 95 1018.7
20260831062006 67 219 0.0 0.0 0.00 0.00 0.00 95 1018.7
20260831061509 67 219 0.0 0.0 0.00 0.00 0.00 95 1018.7
20260831061103 67 219 0.0 0.0 0.00 0.00 0.00 95 1018.7
20260831060502 67 219 0.0 0.0 0.00 0.00 0.00 95 1018.8
20260831060008 67 219 0.0 0.0 0.00 0.00 0.00 95 1018.9
20260831055603 67 219 0.0 0.0 0.00 0.00 0.00 95 1018.9
20260831055002 67 219 0.0 0.0 0.00 0.00 0.00 95 1018.9
20260831054509 67 219 0.0 0.0 0.00 0.00 0.00 95 1018.9
20260831054102 67 219 0.0 0.0 0.00 0.00 0.00 95 1018.9
20260831053502 67 219 0.0 0.0 0.00 0.00 0.00 95 1018.9
20260831053013 67 219 0.0 0.0 0.00 0.00 0.00 95 1018.9
20260831052605 67 219 0.0 0.0 0.00 0.00 0.00 95 1018.8
20260831052002 67 219 0.0 0.0 0.00 0.00 0.00 95 1018.8
20260831051511 68 219 0.0 0.0 0.00 0.00 0.00 95 1018.7
20260831051103 68 219 0.0 0.0 0.00 0.00 0.00 95 1018.8
20260831050502 68 219 0.0 0.0 0.00 0.00 0.00 95 1018.8
20260831050009 68 219 0.0 0.0 0.00 0.00 0.00 95 1018.8
20260831045606 68 219 0.0 0.0 0.00 0.00 0.00 95 1018.7
20260831045003 68 219 0.0 0.0 0.00 0.00 0.00 95 1018.8
20260831044514 68 219 0.0 0.0 0.00 0.00 0.00 95 1018.8
20260831044102 68 219 0.0 0.0 0.00 0.00 0.00 95 1018.7
20260831043504 68 219 0.0 0.0 0.00 0.00 0.00 95 1018.7
20260831043009 68 219 0.0 0.0 0.00 0.00 0.00 95 1018.7
20260831042605 68 219 0.0 0.0 0.00 0.00 0.00 94 1018.7
20260831042002 68 219 0.0 0.0 0.00 0.00 0.00 94 1018.7
20260831041511 68 219 0.0 0.0 0.00 0.00 0.00 94 1018.7
20260831041104 69 219 0.0 0.0 0.00 0.00 0.00 94 1018.8
20260831040511 69 219 0.0 0.0 0.00 0.00 0.00 94 1018.8
20260831040009 69 219 0.0 0.0 0.00 0.00 0.00 94 1018.9
20260831035606 69 219 0.0 0.0 0.00 0.00 0.00 94 1018.9
20260831035003 69 219 0.0 0.0 0.00 0.00 0.00 94 1018.9
20260831034509 69 219 0.0 0.0 0.00 0.00 0.00 94 1018.9
20260831034103 69 219 0.0 0.0 0.00 0.00 0.00 94 1018.9
20260831033503 69 219 0.0 0.0 0.00 0.00 0.00 94 1018.9
20260831033009 69 219 0.0 0.0 0.00 0.00 0.00 94 1018.9
20260831032603 69 219 0.0 0.0 0.00 0.00 0.00 94 1019.0
20260831032004 70 219 0.0 0.0 0.00 0.00 0.00 94 1019.1
20260831031509 70 219 0.0 0.0 0.00 0.00 0.00 94 1019.1
20260831031103 70 219 0.0 0.0 0.00 0.00 0.00 94 1019.2
20260831030503 70 219 0.0 0.0 0.00 0.00 0.00 94 1019.2
20260831030008 70 219 0.0 0.0 0.00 0.00 0.00 93 1019.1
20260831025602 70 219 0.0 0.0 0.00 0.00 0.00 93 1019.2
20260831025002 70 219 0.0 0.0 0.00 0.00 0.00 93 1019.3
20260831024509 70 219 0.0 0.0 0.00 0.00 0.00 93 1019.3
20260831024103 71 219 0.0 0.0 0.00 0.00 0.00 93 1019.3
20260831023502 71 219 0.0 0.0 0.00 0.00 0.00 93 1019.3
20260831023009 71 219 0.0 0.0 0.00 0.00 0.00 93 1019.3
20260831022603 71 219 0.0 0.0 0.00 0.00 0.00 93 1019.3
20260831022003 71 219 0.0 0.0 0.00 0.00 0.00 93 1019.2
20260831021509 71 219 0.0 0.0 0.00 0.00 0.00 92 1019.2
20260831021104 71 219 0.0 0.0 0.00 0.00 0.00 92 1019.1
20260831020503 71 219 0.0 0.0 0.00 0.00 0.00 92 1019.1
20260831020009 71 219 0.0 0.0 0.00 0.00 0.00 92 1019.0
20260831015603 72 219 0.0 0.0 0.00 0.00 0.00 92 1018.9
20260831015002 72 219 0.0 0.0 0.00 0.00 0.00 92 1018.9
20260831014508 72 219 0.0 0.0 0.00 0.00 0.00 92 1018.9
20260831014103 72 219 0.0 0.0 0.00 0.00 0.00 91 1018.9
20260831013504 72 219 0.0 0.0 0.00 0.00 0.00 91 1018.8
20260831013011 72 219 0.0 0.0 0.00 0.00 0.00 91 1019.0
20260831012602 73 219 0.0 0.0 0.00 0.00 0.00 91 1018.9
20260831012002 73 219 0.0 0.0 0.00 0.00 0.00 91 1018.9
20260831011509 73 219 0.0 0.0 0.00 0.00 0.00 91 1018.8
20260831011103 73 219 0.0 0.0 0.00 0.00 0.00 90 1018.7
20260831010503 73 219 0.0 0.0 0.00 0.00 0.00 90 1018.5
20260831010009 73 219 0.0 0.0 0.00 0.00 0.00 89 1018.5
20260831005604 74 219 0.0 0.0 0.00 0.00 0.00 89 1018.5
20260831005003 74 219 0.0 0.0 0.00 0.00 0.00 89 1018.4
20260831004508 74 219 0.0 0.0 0.00 0.00 0.00 88 1018.5
20260831004102 74 219 0.0 0.0 0.00 0.00 0.00 88 1018.5
20260831003505 75 219 0.0 0.0 0.00 0.00 0.00 87 1018.4
20260831003008 75 219 0.0 0.0 0.00 0.00 0.00 87 1018.4
20260831002602 75 219 0.0 0.0 0.00 0.00 0.00 86 1018.4
20260831002002 76 219 0.0 0.0 0.00 0.00 0.00 86 1018.4
20260831001508 76 219 0.0 0.0 0.00 0.00 0.00 85 1018.3
20260831001103 76 219 0.0 0.0 0.00 0.00 0.00 85 1018.4
20260831000503 77 219 0.0 0.0 0.00 0.00 0.00 84 1018.4
20260831000019 77 219 0.0 0.0 0.00 0.00 0.00 84 1018.5
20260830235602 77 219 0.0 0.0 0.00 0.00 0.00 83 1018.5
20260830235003 77 219 0.0 0.0 0.00 0.00 0.00 83 1018.5
20260830234508 78 219 0.0 0.0 0.00 0.00 0.00 82 1018.4
20260830234103 78 219 0.0 0.0 0.00 0.00 0.00 82 1018.4
20260830233503 78 219 0.0 0.0 0.00 0.00 0.00 81 1018.5
20260830233008 79 219 0.0 0.0 0.00 0.00 0.00 80 1018.5
20260830232603 79 219 0.0 0.0 0.00 0.00 0.00 80 1018.4
20260830232004 79 219 0.0 0.0 0.00 0.00 0.00 79 1018.5
20260830231508 80 219 0.0 0.0 0.00 0.00 0.00 77 1018.5
20260830231102 80 219 0.0 0.0 0.00 0.00 0.00 78 1018.4
20260830230502 80 219 0.0 0.0 0.00 0.00 0.00 77 1018.4
20260830230015 80 219 0.0 0.0 0.00 0.00 0.00 76 1018.5
20260830225603 81 219 0.0 0.0 0.00 0.00 0.00 76 1018.3
20260830225002 81 219 0.0 0.0 0.00 0.00 0.00 74 1018.4
20260830224511 81 219 0.0 0.0 0.00 0.00 0.00 75 1018.4
20260830224104 81 219 0.0 0.0 0.00 0.00 0.00 75 1018.3
20260830223503 82 220 0.0 0.0 0.00 0.00 0.00 73 1018.4
20260830223009 82 220 0.0 0.0 0.00 0.00 0.00 74 1018.3
20260830222606 82 220 0.0 0.0 0.00 0.00 0.00 71 1018.2
20260830222004 82 220 0.0 0.0 0.00 0.00 0.00 72 1018.2
20260830221508 83 220 0.0 0.0 0.00 0.00 0.00 72 1018.1
20260830221103 83 220 0.0 0.0 0.00 0.00 0.00 71 1018.1
20260830220503 83 220 0.0 0.0 0.00 0.00 0.00 70 1018.1
20260830220009 83 220 0.0 0.0 0.00 0.00 0.00 67 1018.2
20260830215604 83 220 0.0 0.0 0.00 0.00 0.00 68 1018.2
20260830215002 84 218 0.0 0.0 0.00 0.00 0.00 67 1018.2
20260830214508 84 186 0.0 0.0 0.00 0.00 0.00 67 1018.1
20260830214103 84 198 0.0 0.0 0.00 0.00 0.00 68 1018.2
20260830213504 85 198 0.0 0.0 0.00 0.00 0.00 66 1018.2
20260830213018 85 200 0.0 0.0 0.00 0.00 0.00 65 1018.2
20260830212602 85 200 0.0 0.0 0.00 0.00 0.00 64 1018.1
20260830212002 86 200 0.0 0.0 0.00 0.00 0.00 66 1018.1
20260830211510 86 200 0.0 0.0 0.00 0.00 0.00 60 1018.1
20260830211102 87 200 0.0 0.9 0.00 0.00 0.00 59 1018.1
20260830210502 87 199 0.0 0.9 0.00 0.00 0.00 60 1018.2
20260830210009 87 198 0.0 0.0 0.00 0.00 0.00 62 1018.2
20260830205605 87 196 0.0 0.9 0.00 0.00 0.00 61 1018.3
20260830205004 88 227 0.0 1.7 0.00 0.00 0.00 61 1018.4
20260830204512 88 171 0.0 1.7 0.00 0.00 0.00 60 1018.4
20260830204103 88 202 0.0 0.9 0.00 0.00 0.00 56 1018.4
20260830203502 88 202 0.0 1.7 0.00 0.00 0.00 60 1018.4
20260830203009 88 202 0.0 4.3 0.00 0.00 0.00 59 1018.5
20260830202604 88 238 0.0 4.3 0.00 0.00 0.00 60 1018.5
20260830202003 87 193 0.0 1.7 0.00 0.00 0.00 59 1018.5
20260830201508 87 226 0.0 0.9 0.00 0.00 0.00 60 1018.6
20260830201103 87 224 0.0 0.9 0.00 0.00 0.00 59 1018.7
20260830200502 87 175 0.0 0.9 0.00 0.00 0.00 62 1018.8
20260830200008 87 201 0.0 1.7 0.00 0.00 0.00 62 1018.9
20260830195605 86 214 0.0 1.7 0.00 0.00 0.00 60 1018.9
20260830195002 86 183 0.0 0.9 0.00 0.00 0.00 61 1018.9
20260830194509 86 195 0.0 3.5 0.00 0.00 0.00 65 1019.0
20260830194104 86 189 0.0 3.5 0.00 0.00 0.00 63 1019.1
20260830193502 86 235 0.0 2.6 0.00 0.00 0.00 64 1019.1
20260830193009 86 239 0.0 2.6 0.00 0.00 0.00 63 1019.2
20260830192603 86 218 0.9 2.6 0.00 0.00 0.00 63 1019.2
20260830192003 86 208 0.0 2.6 0.00 0.00 0.00 63 1019.3
20260830191509 86 163 0.0 1.7 0.00 0.00 0.00 66 1019.3
20260830191103 86 175 0.0 1.7 0.00 0.00 0.00 64 1019.3
20260830190502 86 13 0.0 2.6 0.00 0.00 0.00 64 1019.3
20260830190009 86 196 0.0 2.6 0.00 0.00 0.00 65 1019.4
20260830185603 86 229 0.0 1.7 0.00 0.00 0.00 66 1019.4
20260830185003 85 185 0.0 0.9 0.00 0.00 0.00 65 1019.6
20260830184517 85 200 0.0 0.9 0.00 0.00 0.00 67 1019.7
20260830184103 85 211 0.0 0.9 0.00 0.00 0.00 65 1019.8
20260830183502 85 183 0.0 1.7 0.00 0.00 0.00 69 1019.9
20260830183008 85 211 0.0 1.7 0.00 0.00 0.00 69 1019.9
20260830182604 85 176 0.0 2.6 0.00 0.00 0.00 67 1020.1
20260830182003 85 204 0.0 2.6 0.00 0.00 0.00 68 1020.3
20260830181508 85 203 0.0 2.6 0.00 0.00 0.00 69 1020.4
20260830181102 84 195 0.0 2.6 0.00 0.00 0.00 71 1020.4
20260830180503 84 186 0.0 2.6 0.00 0.00 0.00 68 1020.6
20260830180015 84 238 0.0 2.6 0.00 0.00 0.00 70 1020.6
20260830175602 84 188 0.0 0.9 0.00 0.00 0.00 71 1020.6